Tracking 19905 objects as of 17-Oct-2019
HD Live streaming from Space Station
objects crossing your sky now

SL-8 DEB

Track SL-8 DEB now!
10-day predictions


NORAD ID: 21936
Int'l Code: 1991-009CD
Perigee: 1,471.7 km
Apogee: 1,895.3 km
Inclination: 74.1 °
Period: 119.9 minutes
Semi major axis: 8054 km
RCS: 0.0437 m2 (small)
Launch date: February 12, 1991
Source: Commonwealth of Independent States (former USSR) (CIS)
Launch site: PLESETSK MISSILE AND SPACE COMPLEX (PKMTR)

Note: This is SATELLITE DEBRIS
aabbcc
Your satellite tracking list
Your tracking list is empty




NASA's NSSDC Master Catalog

Two Line Element Set (TLE):
1 21936U 91009CD  19288.96581116  .00000062  00000-0  84831-3 0  9990
2 21936  74.0606 129.8374 0262954 306.6400 120.3838 12.01008720216282
Source of the keplerian elements: AFSPC